| time (UTC) | temp F | wind direction | speed MPH | gust MPH | rain 1hr in | rain 24hr in | rain mn in | humidity % | barometer mb |
| 20260505152517 | 78 | 251 | 4.0 | 9.0 | 0.00 | 0.00 | 0.00 | 42 | 1010.4 |
| 20260505151517 | 77 | 258 | 3.0 | 5.0 | 0.00 | 0.00 | 0.00 | 46 | 1010.4 |
| 20260505150517 | 76 | 250 | 3.0 | 9.0 | 0.00 | 0.00 | 0.00 | 44 | 1010.4 |
| 20260505140558 | 72 | 256 | 3.0 | 7.0 | 0.00 | 0.00 | 0.00 | 50 | 1011.2 |
| 20260505124516 | 67 | 255 | 2.0 | 5.0 | 0.00 | 0.00 | 0.00 | 58 | 1011.2 |
| 20260505123516 | 67 | 240 | 2.0 | 5.0 | 0.00 | 0.00 | 0.00 | 60 | 1011.2 |
| 20260505122516 | 66 | 204 | 3.0 | 5.0 | 0.00 | 0.00 | 0.00 | 59 | 1011.0 |
| 20260505121516 | 66 | 223 | 2.0 | 4.0 | 0.00 | 0.00 | 0.00 | 59 | 1011.1 |
| 20260505120517 | 65 | 264 | 1.0 | 3.0 | 0.00 | 0.00 | 0.00 | 63 | 1011.0 |
| 20260505115517 | 65 | 268 | 1.0 | 5.0 | 0.00 | 0.00 | 0.00 | 67 | 1011.2 |
| 20260505114517 | 63 | 339 | 1.0 | 3.0 | 0.00 | 0.00 | 0.00 | 75 | 1011.1 |
| 20260505113537 | 61 | 46 | 1.0 | 2.0 | 0.00 | 0.00 | 0.00 | 78 | 1011.0 |
| 20260505112517 | 58 | 28 | 1.0 | 3.0 | 0.00 | 0.00 | 0.00 | 79 | 1011.0 |
| 20260505111518 | 57 | 42 | 1.0 | 3.0 | 0.00 | 0.00 | 0.00 | 81 | 1011.0 |
| 20260505110515 | 56 | 8 | 1.0 | 3.0 | 0.00 | 0.00 | 0.00 | 82 | 1011.1 |
| 20260505101516 | 54 | 72 | 1.0 | 2.0 | 0.00 | 0.00 | 0.00 | 84 | 1011.0 |
| 20260505100516 | 54 | 18 | 1.0 | 2.0 | 0.00 | 0.00 | 0.00 | 85 | 1010.9 |
| 20260505095516 | 54 | 339 | 1.0 | 2.0 | 0.00 | 0.00 | 0.00 | 85 | 1010.9 |
| 20260505094516 | 54 | 342 | 1.0 | 2.0 | 0.00 | 0.00 | 0.00 | 84 | 1010.9 |
| 20260505093516 | 55 | 338 | 1.0 | 2.0 | 0.00 | 0.00 | 0.00 | 82 | 1010.7 |
| 20260505092516 | 55 | 49 | 1.0 | 2.0 | 0.00 | 0.00 | 0.00 | 80 | 1010.2 |
| 20260505091537 | 55 | 31 | 1.0 | 4.0 | 0.00 | 0.00 | 0.00 | 81 | 1010.1 |
| 20260505090517 | 55 | 39 | 1.0 | 3.0 | 0.00 | 0.00 | 0.00 | 82 | 1010.1 |
| 20260505085516 | 54 | 56 | 1.0 | 2.0 | 0.00 | 0.00 | 0.00 | 83 | 1010.1 |
| 20260505084517 | 54 | 72 | 1.0 | 3.0 | 0.00 | 0.00 | 0.00 | 84 | 1010.1 |
| 20260505083517 | 53 | 32 | 0.0 | 2.0 | 0.00 | 0.00 | 0.00 | 84 | 1010.2 |
| 20260505082517 | 53 | 67 | 1.0 | 2.0 | 0.00 | 0.00 | 0.00 | 85 | 1010.1 |
| 20260505081518 | 53 | 360 | 1.0 | 2.0 | 0.00 | 0.00 | 0.00 | 84 | 1010.1 |
| 20260505080518 | 53 | 13 | 1.0 | 2.0 | 0.00 | 0.00 | 0.00 | 84 | 1010.1 |
| 20260505075518 | 53 | 22 | 1.0 | 1.0 | 0.00 | 0.00 | 0.00 | 83 | 1010.2 |
| 20260505074515 | 54 | 51 | 1.0 | 1.0 | 0.00 | 0.00 | 0.00 | 82 | 1010.1 |
| 20260505073515 | 54 | 21 | 1.0 | 2.0 | 0.00 | 0.00 | 0.00 | 81 | 1010.1 |
| 20260505072516 | 54 | 10 | 1.0 | 2.0 | 0.00 | 0.00 | 0.00 | 81 | 1010.1 |
| 20260505071516 | 54 | 51 | 0.0 | 1.0 | 0.00 | 0.00 | 0.00 | 80 | 1010.0 |
| 20260505070516 | 55 | 60 | 1.0 | 2.0 | 0.00 | 0.00 | 0.00 | 79 | 1010.0 |
| 20260505065516 | 56 | 17 | 1.0 | 2.0 | 0.00 | 0.00 | 0.00 | 77 | 1010.0 |
| 20260505064517 | 56 | 5 | 1.0 | 3.0 | 0.00 | 0.00 | 0.00 | 74 | 1010.0 |
| 20260505063517 | 57 | 13 | 1.0 | 3.0 | 0.00 | 0.00 | 0.00 | 72 | 1010.0 |
| 20260505062517 | 58 | 66 | 2.0 | 6.0 | 0.00 | 0.00 | 0.00 | 71 | 1010.0 |
| 20260505061517 | 59 | 44 | 1.0 | 2.0 | 0.00 | 0.00 | 0.00 | 69 | 1010.1 |
| 20260505060518 | 58 | 25 | 1.0 | 5.0 | 0.00 | 0.00 | 0.00 | 68 | 1010.0 |
| 20260505055518 | 58 | 229 | 1.0 | 4.0 | 0.00 | 0.00 | 0.00 | 69 | 1010.1 |
| 20260505054518 | 56 | 97 | 1.0 | 4.0 | 0.00 | 0.00 | 0.00 | 71 | 1010.2 |
| 20260505053515 | 55 | 18 | 2.0 | 4.0 | 0.00 | 0.00 | 0.00 | 74 | 1010.2 |
| 20260505052518 | 55 | 75 | 1.0 | 4.0 | 0.00 | 0.00 | 0.00 | 75 | 1010.2 |
| 20260505051515 | 55 | 49 | 1.0 | 3.0 | 0.00 | 0.00 | 0.00 | 74 | 1010.3 |
| 20260505050535 | 55 | 9 | 1.0 | 3.0 | 0.00 | 0.00 | 0.00 | 72 | 1010.3 |
| 20260505041517 | 56 | 4 | 1.0 | 3.0 | 0.00 | 0.00 | 0.00 | 66 | 1010.4 |
| 20260505040536 | 57 | 22 | 1.0 | 2.0 | 0.00 | 0.00 | 0.00 | 65 | 1010.4 |
| 20260505035517 | 58 | 7 | 1.0 | 3.0 | 0.00 | 0.00 | 0.00 | 63 | 1010.4 |
| 20260505034517 | 58 | 356 | 1.0 | 3.0 | 0.00 | 0.00 | 0.00 | 61 | 1010.4 |
| 20260505033517 | 58 | 42 | 1.0 | 3.0 | 0.00 | 0.00 | 0.00 | 61 | 1010.4 |
| 20260505032517 | 58 | 56 | 1.0 | 3.0 | 0.00 | 0.00 | 0.00 | 58 | 1010.4 |
| 20260505031538 | 58 | 38 | 1.0 | 3.0 | 0.00 | 0.00 | 0.00 | 59 | 1010.4 |
| 20260505030518 | 59 | 7 | 1.0 | 3.0 | 0.00 | 0.00 | 0.00 | 57 | 1010.4 |
| 20260505025518 | 59 | 352 | 1.0 | 3.0 | 0.00 | 0.00 | 0.00 | 55 | 1010.5 |
| 20260505024515 | 59 | 37 | 1.0 | 3.0 | 0.00 | 0.00 | 0.00 | 54 | 1010.5 |
| 20260505023518 | 59 | 52 | 1.0 | 3.0 | 0.00 | 0.00 | 0.00 | 53 | 1010.6 |
| 20260505022518 | 60 | 45 | 1.0 | 3.0 | 0.00 | 0.00 | 0.00 | 52 | 1010.6 |
| 20260505021515 | 60 | 53 | 1.0 | 3.0 | 0.00 | 0.00 | 0.00 | 51 | 1010.7 |
| 20260505020516 | 60 | 48 | 1.0 | 4.0 | 0.00 | 0.00 | 0.00 | 52 | 1010.7 |
| 20260505015516 | 60 | 68 | 1.0 | 2.0 | 0.00 | 0.00 | 0.00 | 52 | 1010.6 |
| 20260505014556 | 60 | 58 | 1.0 | 3.0 | 0.00 | 0.00 | 0.00 | 51 | 1010.5 |
| 20260505013516 | 61 | 60 | 2.0 | 3.0 | 0.00 | 0.00 | 0.00 | 49 | 1010.4 |
| 20260505012516 | 62 | 55 | 1.0 | 3.0 | 0.00 | 0.00 | 0.00 | 48 | 1010.3 |
| 20260505011516 | 62 | 29 | 1.0 | 3.0 | 0.00 | 0.00 | 0.00 | 48 | 1010.2 |
| 20260505010517 | 62 | 54 | 1.0 | 3.0 | 0.00 | 0.00 | 0.00 | 47 | 1010.1 |
| 20260505005516 | 63 | 46 | 1.0 | 2.0 | 0.00 | 0.00 | 0.00 | 47 | 1010.0 |
| 20260505004517 | 64 | 359 | 1.0 | 2.0 | 0.00 | 0.00 | 0.00 | 44 | 1009.9 |
| 20260505003517 | 66 | 339 | 0.0 | 2.0 | 0.00 | 0.00 | 0.00 | 40 | 1009.8 |
| 20260505002517 | 67 | 280 | 0.0 | 2.0 | 0.00 | 0.00 | 0.00 | 38 | 1009.7 |
| 20260505001537 | 68 | 266 | 1.0 | 3.0 | 0.00 | 0.00 | 0.00 | 37 | 1009.7 |
| 20260505000517 | 69 | 257 | 2.0 | 6.0 | 0.00 | 0.00 | 0.00 | 36 | 1009.5 |
| 20260504235538 | 69 | 253 | 2.0 | 5.0 | 0.00 | 0.00 | 0.00 | 34 | 1009.4 |
| 20260504234538 | 70 | 247 | 2.0 | 4.0 | 0.00 | 0.00 | 0.00 | 34 | 1009.2 |
| 20260504233515 | 70 | 251 | 3.0 | 8.0 | 0.00 | 0.00 | 0.00 | 34 | 1009.1 |
| 20260504232515 | 71 | 240 | 3.0 | 7.0 | 0.00 | 0.00 | 0.00 | 32 | 1009.0 |
| 20260504231515 | 71 | 259 | 3.0 | 8.0 | 0.00 | 0.00 | 0.00 | 33 | 1009.0 |
| 20260504230515 | 71 | 251 | 4.0 | 9.0 | 0.00 | 0.00 | 0.00 | 33 | 1008.9 |
| 20260504225516 | 72 | 224 | 4.0 | 9.0 | 0.00 | 0.00 | 0.00 | 32 | 1008.8 |
| 20260504224516 | 72 | 260 | 4.0 | 7.0 | 0.00 | 0.00 | 0.00 | 32 | 1008.8 |
| 20260504223516 | 72 | 255 | 3.0 | 8.0 | 0.00 | 0.00 | 0.00 | 32 | 1008.9 |
| 20260504222516 | 72 | 261 | 4.0 | 8.0 | 0.00 | 0.00 | 0.00 | 32 | 1008.9 |
| 20260504221556 | 72 | 262 | 4.0 | 8.0 | 0.00 | 0.00 | 0.00 | 32 | 1008.9 |
| 20260504220536 | 73 | 262 | 4.0 | 10.0 | 0.00 | 0.00 | 0.00 | 31 | 1009.0 |
| 20260504215517 | 73 | 223 | 5.0 | 9.0 | 0.00 | 0.00 | 0.00 | 30 | 1009.0 |
| 20260504214517 | 73 | 234 | 4.0 | 9.0 | 0.00 | 0.00 | 0.00 | 31 | 1009.1 |
| 20260504213517 | 73 | 248 | 4.0 | 8.0 | 0.00 | 0.00 | 0.00 | 31 | 1009.1 |
| 20260504212517 | 73 | 253 | 4.0 | 7.0 | 0.00 | 0.00 | 0.00 | 30 | 1009.2 |
| 20260504211517 | 73 | 254 | 4.0 | 8.0 | 0.00 | 0.00 | 0.00 | 30 | 1009.3 |
| 20260504210537 | 73 | 255 | 4.0 | 9.0 | 0.00 | 0.00 | 0.00 | 32 | 1009.3 |
| 20260504205517 | 73 | 256 | 5.0 | 10.0 | 0.00 | 0.00 | 0.00 | 31 | 1009.3 |
| 20260504204518 | 74 | 218 | 6.0 | 12.0 | 0.00 | 0.00 | 0.00 | 30 | 1009.2 |
| 20260504203515 | 74 | 236 | 6.0 | 12.0 | 0.00 | 0.00 | 0.00 | 30 | 1009.3 |
| 20260504202515 | 75 | 231 | 5.0 | 11.0 | 0.00 | 0.00 | 0.00 | 30 | 1009.2 |
| 20260504201515 | 74 | 257 | 4.0 | 9.0 | 0.00 | 0.00 | 0.00 | 30 | 1009.3 |
| 20260504200515 | 74 | 235 | 4.0 | 10.0 | 0.00 | 0.00 | 0.00 | 30 | 1009.3 |
| 20260504195516 | 74 | 260 | 5.0 | 12.0 | 0.00 | 0.00 | 0.00 | 30 | 1009.5 |
| 20260504194536 | 73 | 235 | 5.0 | 11.0 | 0.00 | 0.00 | 0.00 | 30 | 1009.5 |
| 20260504193516 | 73 | 240 | 6.0 | 11.0 | 0.00 | 0.00 | 0.00 | 30 | 1009.5 |
| 20260504192536 | 73 | 256 | 5.0 | 8.0 | 0.00 | 0.00 | 0.00 | 31 | 1009.6 |
| 20260504191516 | 73 | 254 | 5.0 | 8.0 | 0.00 | 0.00 | 0.00 | 30 | 1009.8 |
| 20260504190517 | 73 | 249 | 4.0 | 9.0 | 0.00 | 0.00 | 0.00 | 31 | 1009.8 |
| 20260504185537 | 73 | 241 | 4.0 | 8.0 | 0.00 | 0.00 | 0.00 | 30 | 1010.0 |
| 20260504184517 | 73 | 256 | 5.0 | 13.0 | 0.00 | 0.00 | 0.00 | 32 | 1010.1 |
| 20260504183517 | 72 | 257 | 5.0 | 10.0 | 0.00 | 0.00 | 0.00 | 33 | 1010.3 |
| 20260504182517 | 71 | 242 | 5.0 | 9.0 | 0.00 | 0.00 | 0.00 | 32 | 1010.4 |
| 20260504181517 | 72 | 220 | 6.0 | 13.0 | 0.00 | 0.00 | 0.00 | 30 | 1010.6 |
| 20260504180517 | 72 | 261 | 4.0 | 10.0 | 0.00 | 0.00 | 0.00 | 33 | 1010.8 |
| 20260504175518 | 71 | 271 | 3.0 | 8.0 | 0.00 | 0.00 | 0.00 | 34 | 1010.8 |
| 20260504174518 | 70 | 250 | 5.0 | 9.0 | 0.00 | 0.00 | 0.00 | 32 | 1010.9 |
| 20260504173558 | 70 | 256 | 6.0 | 12.0 | 0.00 | 0.00 | 0.00 | 32 | 1011.0 |
| 20260504172535 | 70 | 261 | 4.0 | 10.0 | 0.00 | 0.00 | 0.00 | 33 | 1011.2 |
| 20260504171515 | 70 | 251 | 6.0 | 10.0 | 0.00 | 0.00 | 0.00 | 33 | 1011.3 |
| 20260504170535 | 70 | 230 | 4.0 | 9.0 | 0.00 | 0.00 | 0.00 | 34 | 1011.4 |